HAZ2773 ZPPP-ZSHC

Flight info

Callsign HAZ2773
Flight time N/A
Altitude 37100
Route NODIB W137 LPS A581 IDGAG W80 XSH DCT JDZ DCT TXN G204 OREXA
Aircraft B77W/H-SDE1E2E3FGHIJ2J3J4J5M1RWXY/LB1D1

Departure

Time N/A
Airport Kunming Changshui International Airport (ZPPP)

Arrival

Time 2026-05-04 15:22
Airport Hangzhou Xiaoshan International Airport (ZSHC)
Time Latitude Longitude Altitude Speed Heading
2026-05-04 14:20 30.48177 114.81477 37137 ft 527 kts 98°
2026-05-04 14:20 30.47748 114.85686 37132 ft 527 kts 98°
2026-05-04 14:21 30.46449 114.98361 37149 ft 528 kts 98°
2026-05-04 14:21 30.45582 115.06753 37149 ft 529 kts 98°
2026-05-04 14:22 30.44701 115.15238 37155 ft 531 kts 98°
2026-05-04 14:22 30.43507 115.23686 37140 ft 530 kts 109°
2026-05-04 14:23 30.40816 115.31568 37143 ft 524 kts 123°
2026-05-04 14:23 30.38943 115.35170 37144 ft 520 kts 128°
2026-05-04 14:24 30.34951 115.42144 37150 ft 520 kts 129°
2026-05-04 14:24 30.30933 115.49125 37139 ft 521 kts 129°
2026-05-04 14:25 30.26960 115.56133 37153 ft 521 kts 129°
2026-05-04 14:26 30.13221 115.80484 37166 ft 522 kts 130°
2026-05-04 14:27 30.09237 115.87511 37155 ft 523 kts 130°
2026-05-04 14:27 30.05250 115.94536 37157 ft 523 kts 130°
2026-05-04 14:28 30.01365 116.01367 37151 ft 524 kts 130°
2026-05-04 14:28 29.97365 116.08386 37161 ft 524 kts 130°
2026-05-04 14:29 29.89341 116.22429 37158 ft 524 kts 130°
2026-05-04 14:30 29.85326 116.29441 37152 ft 524 kts 130°
2026-05-04 14:31 29.79292 116.39946 37080 ft 522 kts 129°
2026-05-04 14:31 29.75267 116.46943 36620 ft 525 kts 131°
2026-05-04 14:32 29.71236 116.53942 36179 ft 526 kts 131°
2026-05-04 14:32 29.69208 116.57456 35833 ft 529 kts 131°
2026-05-04 14:32 29.67157 116.61002 35183 ft 534 kts 131°
2026-05-04 14:32 29.65097 116.64564 34503 ft 535 kts 131°
2026-05-04 14:33 29.63036 116.68128 33803 ft 536 kts 131°
2026-05-04 14:33 29.60972 116.71696 33039 ft 536 kts 131°
2026-05-04 14:33 29.58914 116.75251 32291 ft 532 kts 131°
2026-05-04 14:33 29.56893 116.78752 31524 ft 519 kts 131°
2026-05-04 14:34 29.54917 116.82172 30809 ft 510 kts 132°
2026-05-04 14:34 29.52937 116.85575 30110 ft 517 kts 132°
2026-05-04 14:34 29.50917 116.89025 29301 ft 524 kts 131°
2026-05-04 14:34 29.48876 116.92518 28553 ft 529 kts 130°
2026-05-04 14:35 29.46824 116.96037 27907 ft 530 kts 130°
2026-05-04 14:35 29.44786 116.99544 27261 ft 526 kts 129°
2026-05-04 14:35 29.42883 117.02819 26869 ft 516 kts 129°
2026-05-04 14:35 29.40902 117.06221 26558 ft 513 kts 129°
2026-05-04 14:36 29.38918 117.09612 26068 ft 510 kts 129°
2026-05-04 14:36 29.37126 117.13013 25567 ft 507 kts 118°
2026-05-04 14:36 29.36122 117.16961 25086 ft 514 kts 99°
2026-05-04 14:36 29.36057 117.20996 24640 ft 516 kts 84°
2026-05-04 14:37 29.36827 117.24999 24191 ft 512 kts 68°
2026-05-04 14:37 29.38224 117.28705 23768 ft 504 kts 64°
2026-05-04 14:37 29.39680 117.32405 23176 ft 502 kts 64°
2026-05-04 14:37 29.41082 117.35998 22576 ft 496 kts 64°
2026-05-04 14:38 29.42479 117.39641 21974 ft 489 kts 65°
2026-05-04 14:38 29.43818 117.43196 21385 ft 482 kts 65°
2026-05-04 14:38 29.45102 117.46651 20981 ft 474 kts 65°
2026-05-04 14:38 29.46397 117.50160 20831 ft 477 kts 65°
2026-05-04 14:39 29.47674 117.53632 20795 ft 469 kts 65°
2026-05-04 14:39 29.48939 117.57077 20786 ft 469 kts 65°
2026-05-04 14:39 29.50208 117.60528 20803 ft 471 kts 65°
2026-05-04 14:40 29.52754 117.67464 20816 ft 473 kts 65°
2026-05-04 14:40 29.54028 117.70944 20812 ft 473 kts 65°
2026-05-04 14:40 29.55303 117.74425 20804 ft 474 kts 65°
2026-05-04 14:40 29.56581 117.77914 20793 ft 474 kts 65°
2026-05-04 14:41 29.57858 117.81406 20800 ft 474 kts 66°
2026-05-04 14:41 29.59127 117.84882 20799 ft 473 kts 66°
2026-05-04 14:41 29.61672 117.91859 20797 ft 473 kts 65°
2026-05-04 14:42 29.64218 117.98850 20799 ft 474 kts 66°
2026-05-04 14:42 29.65411 118.02131 20796 ft 474 kts 66°
2026-05-04 14:42 29.66679 118.05624 20804 ft 474 kts 66°
2026-05-04 14:43 29.67948 118.09123 20796 ft 474 kts 66°
2026-05-04 14:43 29.69214 118.12616 20785 ft 474 kts 66°
2026-05-04 14:43 29.70484 118.16120 20485 ft 474 kts 66°
2026-05-04 14:43 29.71743 118.19604 20113 ft 468 kts 66°
2026-05-04 14:44 29.72769 118.23136 19733 ft 464 kts 76°
2026-05-04 14:44 29.73295 118.26782 19380 ft 461 kts 84°
2026-05-04 14:44 29.73415 118.30450 19038 ft 457 kts 92°
2026-05-04 14:44 29.73129 118.34079 18704 ft 454 kts 97°
2026-05-04 14:45 29.72772 118.37654 18365 ft 452 kts 97°
2026-05-04 14:45 29.72410 118.41239 17966 ft 450 kts 97°
2026-05-04 14:45 29.72061 118.44807 17576 ft 447 kts 97°
2026-05-04 14:45 29.71727 118.48343 17194 ft 443 kts 96°
2026-05-04 14:46 29.71405 118.51849 16836 ft 438 kts 96°
2026-05-04 14:46 29.71091 118.55299 16788 ft 433 kts 96°
2026-05-04 14:46 29.70777 118.58752 16810 ft 434 kts 96°
2026-05-04 14:46 29.70462 118.62208 16811 ft 435 kts 96°
2026-05-04 14:47 29.70146 118.65664 16803 ft 435 kts 96°
2026-05-04 14:47 29.69828 118.69123 16812 ft 435 kts 96°
2026-05-04 14:47 29.69510 118.72574 16803 ft 434 kts 96°
2026-05-04 14:47 29.69201 118.76026 16811 ft 434 kts 96°
2026-05-04 14:48 29.68910 118.79308 16807 ft 434 kts 96°
2026-05-04 14:48 29.68640 118.82348 16807 ft 434 kts 96°
2026-05-04 14:48 29.68332 118.85802 16810 ft 434 kts 96°
2026-05-04 14:48 29.68027 118.89212 16647 ft 436 kts 96°
2026-05-04 14:49 29.67712 118.92718 16393 ft 433 kts 96°
2026-05-04 14:49 29.67407 118.96094 16139 ft 427 kts 96°
2026-05-04 14:49 29.67101 118.99466 15891 ft 422 kts 96°
2026-05-04 14:49 29.66814 119.02621 15656 ft 418 kts 96°
2026-05-04 14:50 29.66513 119.05928 15407 ft 415 kts 96°
2026-05-04 14:50 29.66212 119.09226 15181 ft 413 kts 96°
2026-05-04 14:50 29.65912 119.12493 14939 ft 410 kts 96°
2026-05-04 14:50 29.65613 119.15746 14695 ft 408 kts 96°
2026-05-04 14:51 29.65317 119.18983 14470 ft 405 kts 96°
2026-05-04 14:51 29.65023 119.22193 14234 ft 403 kts 96°
2026-05-04 14:51 29.64730 119.25389 14010 ft 401 kts 96°
2026-05-04 14:51 29.64438 119.28568 13756 ft 399 kts 96°
2026-05-04 14:52 29.64146 119.31728 13488 ft 397 kts 96°
2026-05-04 14:52 29.63919 119.34880 13234 ft 395 kts 94°
2026-05-04 14:52 29.63758 119.38024 13010 ft 393 kts 93°
2026-05-04 14:52 29.63605 119.41144 12955 ft 390 kts 93°
2026-05-04 14:53 29.63440 119.44258 12925 ft 391 kts 94°
2026-05-04 14:53 29.63262 119.47378 12922 ft 392 kts 94°
2026-05-04 14:53 29.63140 119.49494 12917 ft 392 kts 93°
2026-05-04 14:53 29.63011 119.53638 12910 ft 392 kts 91°
2026-05-04 14:54 29.62973 119.55715 12904 ft 392 kts 91°
2026-05-04 14:54 29.62884 119.59914 12904 ft 393 kts 91°
2026-05-04 14:54 29.62875 119.63020 12894 ft 386 kts 84°
2026-05-04 14:54 29.63263 119.65067 12910 ft 390 kts 70°
2026-05-04 14:55 29.65099 119.68609 12919 ft 391 kts 50°
2026-05-04 14:55 29.66271 119.70233 12927 ft 393 kts 49°
2026-05-04 14:55 29.68008 119.72627 12923 ft 396 kts 50°
2026-05-04 14:55 29.69765 119.75061 12916 ft 395 kts 50°
2026-05-04 14:56 29.71507 119.77495 12903 ft 392 kts 50°
2026-05-04 14:56 29.73222 119.79910 12903 ft 389 kts 50°
2026-05-04 14:56 29.74909 119.82298 12704 ft 379 kts 50°
2026-05-04 14:56 29.76545 119.84621 12450 ft 368 kts 50°
2026-05-04 14:57 29.78129 119.86876 12188 ft 352 kts 50°
2026-05-04 14:57 29.79616 119.88994 11929 ft 329 kts 50°
2026-05-04 14:57 29.81014 119.90984 11665 ft 312 kts 50°
2026-05-04 14:57 29.82376 119.92927 11388 ft 311 kts 50°
2026-05-04 14:58 29.83735 119.94861 11086 ft 309 kts 50°
2026-05-04 14:58 29.85063 119.96771 10740 ft 299 kts 53°
2026-05-04 14:58 29.86128 119.98763 10374 ft 287 kts 61°
2026-05-04 14:58 29.86970 120.00636 10031 ft 273 kts 62°
2026-05-04 14:59 29.87819 120.02513 9788 ft 252 kts 61°
2026-05-04 14:59 29.88621 120.04240 9799 ft 243 kts 60°
2026-05-04 14:59 29.90224 120.07643 9787 ft 241 kts 60°
2026-05-04 15:00 29.91025 120.09338 9791 ft 241 kts 60°
2026-05-04 15:00 29.91829 120.11036 9793 ft 241 kts 60°
2026-05-04 15:00 29.92634 120.12737 9795 ft 241 kts 60°
2026-05-04 15:01 29.94194 120.16036 9766 ft 221 kts 60°
2026-05-04 15:01 29.94919 120.17569 9512 ft 216 kts 60°
2026-05-04 15:01 29.95629 120.19069 9246 ft 211 kts 60°
2026-05-04 15:01 29.96322 120.20535 8983 ft 204 kts 60°
2026-05-04 15:02 29.96991 120.21950 8957 ft 201 kts 60°
2026-05-04 15:02 29.97659 120.23363 8998 ft 202 kts 60°
2026-05-04 15:02 29.98339 120.24801 8978 ft 207 kts 60°
2026-05-04 15:02 29.99028 120.26259 8926 ft 207 kts 60°
2026-05-04 15:03 29.99709 120.27711 8896 ft 204 kts 61°
2026-05-04 15:03 30.00356 120.29149 8872 ft 201 kts 61°
2026-05-04 15:03 30.00991 120.30573 8889 ft 200 kts 61°
2026-05-04 15:03 30.01636 120.32018 8900 ft 204 kts 61°
2026-05-04 15:04 30.02288 120.33481 8903 ft 207 kts 61°
2026-05-04 15:04 30.02950 120.34967 8828 ft 208 kts 61°
2026-05-04 15:04 30.03610 120.36449 8630 ft 208 kts 61°
2026-05-04 15:04 30.04269 120.37929 8421 ft 205 kts 61°
2026-05-04 15:05 30.04915 120.39379 8206 ft 202 kts 61°
2026-05-04 15:05 30.05556 120.40818 8006 ft 201 kts 61°
2026-05-04 15:05 30.06190 120.42245 7806 ft 199 kts 61°
2026-05-04 15:05 30.06823 120.43668 7601 ft 198 kts 61°
2026-05-04 15:06 30.07451 120.45080 7404 ft 198 kts 61°
2026-05-04 15:06 30.08079 120.46491 7215 ft 197 kts 61°
2026-05-04 15:06 30.08703 120.47896 7030 ft 197 kts 61°
2026-05-04 15:07 30.09956 120.50715 6927 ft 200 kts 61°
2026-05-04 15:07 30.10591 120.52143 6901 ft 200 kts 61°
2026-05-04 15:07 30.11225 120.53573 6884 ft 200 kts 61°
2026-05-04 15:07 30.11863 120.55010 6715 ft 202 kts 62°
2026-05-04 15:08 30.12500 120.56446 6557 ft 199 kts 61°
2026-05-04 15:08 30.13129 120.57867 6315 ft 199 kts 62°
2026-05-04 15:08 30.13759 120.59293 6056 ft 199 kts 62°
2026-05-04 15:08 30.14388 120.60714 5822 ft 199 kts 62°
2026-05-04 15:09 30.15017 120.62139 5571 ft 199 kts 62°
2026-05-04 15:09 30.15641 120.63550 5317 ft 200 kts 62°
2026-05-04 15:09 30.16278 120.64993 5074 ft 200 kts 63°
2026-05-04 15:10 30.17511 120.67789 4915 ft 196 kts 63°
2026-05-04 15:10 30.18131 120.69195 4904 ft 198 kts 63°
2026-05-04 15:10 30.19374 120.72055 4816 ft 202 kts 64°
2026-05-04 15:11 30.20004 120.73517 4571 ft 202 kts 64°
2026-05-04 15:11 30.20628 120.74953 4324 ft 198 kts 64°
2026-05-04 15:11 30.21245 120.76363 4096 ft 195 kts 64°
2026-05-04 15:11 30.21859 120.77753 3839 ft 194 kts 64°
2026-05-04 15:12 30.22480 120.79147 3584 ft 195 kts 64°
2026-05-04 15:12 30.23106 120.80539 3355 ft 196 kts 64°
2026-05-04 15:12 30.23741 120.81934 3100 ft 196 kts 63°
2026-05-04 15:12 30.24617 120.83126 2807 ft 199 kts 31°
2026-05-04 15:13 30.25947 120.83473 2562 ft 199 kts 351°
2026-05-04 15:13 30.27252 120.82994 2361 ft 198 kts 335°
2026-05-04 15:13 30.28523 120.82367 2125 ft 198 kts 334°
2026-05-04 15:13 30.29773 120.81753 2046 ft 194 kts 334°
2026-05-04 15:14 30.31020 120.81144 1999 ft 196 kts 334°
2026-05-04 15:14 30.32275 120.80526 1997 ft 196 kts 334°
2026-05-04 15:14 30.33515 120.79873 1986 ft 193 kts 324°
2026-05-04 15:14 30.34324 120.78726 1983 ft 182 kts 283°
2026-05-04 15:15 30.34408 120.77315 2018 ft 178 kts 263°
2026-05-04 15:15 30.34359 120.75842 2001 ft 185 kts 264°
2026-05-04 15:15 30.34312 120.74360 1991 ft 182 kts 264°
2026-05-04 15:16 30.34223 120.71490 1985 ft 177 kts 264°
2026-05-04 15:16 30.34174 120.70045 1997 ft 181 kts 262°
2026-05-04 15:16 30.33406 120.67321 1995 ft 180 kts 243°
2026-05-04 15:17 30.32879 120.66005 1994 ft 180 kts 241°
2026-05-04 15:17 30.31768 120.63428 1981 ft 175 kts 240°
2026-05-04 15:17 30.31219 120.62181 1988 ft 175 kts 240°
2026-05-04 15:18 30.30660 120.60914 2018 ft 178 kts 240°
2026-05-04 15:18 30.30100 120.59646 2000 ft 180 kts 240°
2026-05-04 15:18 30.29540 120.58375 1998 ft 181 kts 240°
2026-05-04 15:19 30.28476 120.55958 1990 ft 158 kts 239°
2026-05-04 15:19 30.27994 120.54867 1875 ft 147 kts 239°
2026-05-04 15:19 30.27125 120.52900 1512 ft 136 kts 239°
2026-05-04 15:20 30.26693 120.51921 1348 ft 138 kts 239°
2026-05-04 15:20 30.26254 120.50927 1158 ft 139 kts 239°
2026-05-04 15:20 30.25814 120.49930 977 ft 139 kts 239°
2026-05-04 15:20 30.25372 120.48930 799 ft 140 kts 240°
2026-05-04 15:21 30.24922 120.47919 601 ft 141 kts 241°
2026-05-04 15:21 30.24474 120.46897 393 ft 143 kts 241°
2026-05-04 15:21 30.23578 120.44867 49 ft 141 kts 243°
2026-05-04 15:22 30.23174 120.43948 36 ft 111 kts 242°
2026-05-04 15:22 30.22892 120.43307 39 ft 68 kts 243°
2026-05-04 15:22 30.22707 120.42763 37 ft 23 kts 270°
2026-05-04 15:23 30.22709 120.42677 36 ft 6 kts 271°
2026-05-04 15:23 30.22725 120.42626 36 ft 7 kts 310°
2026-05-04 15:23 30.22771 120.42618 36 ft 7 kts 34°
2026-05-04 15:23 30.22803 120.42671 37 ft 8 kts 60°
2026-05-04 15:24 30.22878 120.42839 37 ft 17 kts 63°
2026-05-04 15:24 30.22987 120.43085 37 ft 17 kts 62°
2026-05-04 15:25 30.23042 120.43210 38 ft 17 kts 63°
2026-05-04 15:25 30.23095 120.43329 37 ft 16 kts 63°
2026-05-04 15:25 30.23135 120.43418 37 ft 11 kts 63°
2026-05-04 15:26 30.23177 120.43514 38 ft 8 kts 63°
2026-05-04 15:26 30.23204 120.43576 37 ft 9 kts 63°
2026-05-04 15:26 30.23267 120.43718 37 ft 10 kts 63°
2026-05-04 15:27 30.23309 120.43814 35 ft 16 kts 63°
2026-05-04 15:27 30.23374 120.43961 37 ft 2 kts 63°
2026-05-04 15:28 30.23393 120.43990 38 ft 4 kts 44°
2026-05-04 15:28 30.23425 120.43998 40 ft 5 kts 352°
2026-05-04 15:28 30.23511 120.43943 37 ft 10 kts 332°
2026-05-04 15:29 30.23576 120.43905 37 ft 11 kts 333°
2026-05-04 15:30 30.23954 120.43685 37 ft 19 kts 333°
2026-05-04 15:30 30.24310 120.43475 37 ft 19 kts 333°
2026-05-04 15:31 30.24508 120.43357 37 ft 7 kts 330°
2026-05-04 15:31 30.24530 120.43310 37 ft 7 kts 267°
2026-05-04 15:32 30.24439 120.43092 37 ft 11 kts 243°
2026-05-04 15:32 30.24368 120.42929 37 ft 11 kts 243°
2026-05-04 15:33 30.24292 120.42769 37 ft 11 kts 241°
2026-05-04 15:34 30.24185 120.42529 37 ft 7 kts 243°
2026-05-04 15:34 30.24157 120.42492 37 ft 6 kts 206°
2026-05-04 15:34 30.24073 120.42476 37 ft 5 kts 199°
2026-05-04 15:35 30.24063 120.42472 37 ft 4 kts 201°
2026-05-04 15:35 30.24059 120.42470 37 ft 1 kts 201°